Weather History for Kalispell, MT

Change the Weather History Date:

Saturday, February 2, 2013

  Actual Average Record
Temperature  
Mean Temperature 33 °F 26 °F  
Max Temperature 44 °F 34 °F 56 °F (1962)
Min Temperature 21 °F 18 °F -29 °F (1950)
Degree Days  
Heating Degree Days 32 39  
Month to date heating degree days 59 78  
Since 1 July heating degree days 4432 4869  
Cooling Degree Days 0 0  
Month to date cooling degree days 0 0  
Year to date cooling degree days 0 0  
Moisture  
Dew Point 26 °F    
Average Humidity 75    
Maximum Humidity 96    
Minimum Humidity 53    
Precipitation  
Precipitation 0.00 in 0.04 in 0.80 in (1917)
Month to date precipitation 0.01 0.07  
Year to date precipitation 0.88 1.40  
Snow  
Snow 0.00 in - - ()
Month to date snowfall 0.0  
Year to date snowfall 6.0  
Since 1 July snowfall 14.8  
Snow Depth 0.00 in    
Sea Level Pressure  
Sea Level Pressure 30.41 in    
Wind  
Wind Speed 3 mph (SW)    
Max Wind Speed 12 mph    
Max Gust Speed 14 mph    
Visibility 10 miles    
Events      
T = Trace of Precipitation, MM = Missing Value Source: NWS Daily Summary

Daily Weather History Graph

Daily Weather History Graph

Search for Another Location

Airport:

Trip Planner

Search our weather history database for the weather conditions in past years. The results will help you decide how hot, cold, wet, or windy it might be!

Date:

Astronomy

Feb. 02, 2013 Rise Set
Actual Time 8:03 AM MST 5:38 PM MST
Civil Twilight 7:30 AM MST 6:11 PM MST
Nautical Twilight 6:53 AM MST 6:49 PM MST
Astronomical Twilight 6:16 AM MST 7:25 PM MST
Moon 12:23 AM MST (2/2) 10:40 AM MST (2/2)
Length of Visible Light 10h 41m
Length of Day
9h 34m
Waning Gibbous, 59% of the Moon is Illuminated
Feb 2
Waning Gibbous
Feb 3
Last Quarter
Feb 10
New
Feb 17
First Quarter
Feb 25
Full

Hourly Weather History & Observations

Time (MST) Temp. Windchill Dew Point Humidity Pressure Visibility Wind Dir Wind Speed Gust Speed Precip Events Conditions
12:55 AM 32.0 °F 28.7 °F 28.0 °F 85% 30.40 in 10.0 mi SW 3.5 mph - N/A   Scattered Clouds
1:55 AM 34.0 °F 28.0 °F 28.9 °F 82% 30.39 in 10.0 mi South 6.9 mph - N/A   Mostly Cloudy
2:55 AM 33.1 °F 28.7 °F 28.0 °F 82% 30.43 in 10.0 mi West 4.6 mph - N/A   Overcast
3:55 AM 30.9 °F 27.5 °F 28.0 °F 89% 30.44 in 10.0 mi SW 3.5 mph - N/A   Overcast
4:55 AM 27.0 °F 20.5 °F 24.1 °F 89% 30.44 in 10.0 mi SW 5.8 mph - N/A   Scattered Clouds
5:55 AM 27.0 °F - 25.0 °F 92% 30.46 in 10.0 mi Calm Calm - N/A   Mostly Cloudy
6:55 AM 25.0 °F 20.7 °F 23.0 °F 92% 30.47 in 10.0 mi WSW 3.5 mph - N/A   Scattered Clouds
7:55 AM 24.1 °F - 21.9 °F 91% 30.48 in 10.0 mi Calm Calm - N/A   Scattered Clouds
8:55 AM 25.0 °F - 23.0 °F 92% 30.49 in 10.0 mi Calm Calm - N/A   Clear
9:55 AM 33.1 °F - 27.0 °F 78% 30.49 in 10.0 mi Calm Calm - N/A   Clear
10:55 AM 34.0 °F - 28.9 °F 82% 30.49 in 10.0 mi Calm Calm - N/A   Clear
11:55 AM 39.0 °F - 28.0 °F 65% 30.47 in 10.0 mi Calm Calm - N/A   Clear
12:55 PM 42.1 °F - 28.9 °F 60% 30.44 in 10.0 mi Calm Calm - N/A   Clear
1:55 PM 44.1 °F 40.1 °F 30.0 °F 58% 30.42 in 10.0 mi South 6.9 mph - N/A   Clear
2:55 PM 44.1 °F 39.0 °F 28.9 °F 55% 30.40 in 10.0 mi South 9.2 mph - N/A   Clear
3:55 PM 44.1 °F 38.6 °F 28.0 °F 53% 30.39 in 10.0 mi South 10.4 mph - N/A   Clear
4:55 PM 43.0 °F 39.5 °F 28.0 °F 56% 30.38 in 10.0 mi South 5.8 mph - N/A   Clear
5:55 PM 36.0 °F 32.1 °F 26.1 °F 67% 30.38 in 10.0 mi West 4.6 mph - N/A   Clear
6:55 PM 28.0 °F 24.2 °F 24.1 °F 85% 30.39 in 10.0 mi NNE 3.5 mph - N/A   Clear
7:55 PM 28.0 °F - 24.1 °F 85% 30.38 in 10.0 mi Calm Calm - N/A   Clear
8:55 PM 26.1 °F - 23.0 °F 88% 30.36 in 10.0 mi Calm Calm - N/A   Clear
9:55 PM 23.0 °F - 21.9 °F 96% 30.33 in 10.0 mi Calm Calm - N/A   Clear
10:55 PM 24.1 °F - 21.9 °F 91% 30.31 in 10.0 mi Calm Calm - N/A   Clear
11:55 PM 23.0 °F - 21.0 °F 92% 30.28 in 10.0 mi Calm Calm - N/A   Clear